Weather History for Gillette, WY

Change the Weather History Date:

Saturday, January 12, 2013

  Actual Average Record
Temperature  
Mean Temperature 5 °F 26 °F  
Max Temperature 8 °F 38 °F - ()
Min Temperature 1 °F 14 °F - ()
Degree Days  
Heating Degree Days 60 39  
Month to date heating degree days 498 473  
Since 1 July heating degree days 3338 3614  
Cooling Degree Days 0 0  
Month to date cooling degree days 0 0  
Year to date cooling degree days 0 0  
Moisture  
Dew Point 0 °F    
Average Humidity 88    
Maximum Humidity 95    
Minimum Humidity 80    
Precipitation  
Precipitation 0.05 in 0.01 in - ()
Month to date precipitation 0.12 0.12  
Year to date precipitation 0.12 0.12  
Sea Level Pressure  
Sea Level Pressure 30.12 in    
Wind  
Wind Speed 11 mph (WNW)    
Max Wind Speed 32 mph    
Max Gust Speed 40 mph    
Visibility 4 miles    
Events Snow    
T = Trace of Precipitation, MM = Missing Value Source: NWS Daily Summary

Daily Weather History Graph

Daily Weather History Graph

Search for Another Location

Airport:

Trip Planner

Search our weather history database for the weather conditions in past years. The results will help you decide how hot, cold, wet, or windy it might be!

Date:

Astronomy

Jan. 12, 2013 Rise Set
Actual Time 7:35 AM MST 4:45 PM MST
Civil Twilight 7:03 AM MST 5:18 PM MST
Nautical Twilight 6:27 AM MST 5:54 PM MST
Astronomical Twilight 5:52 AM MST 6:29 PM MST
Moon 7:52 AM MST (1/12) 6:22 PM MST (1/12)
Length of Visible Light 10h 14m
Length of Day
9h 09m
New Moon, 1% of the Moon is Illuminated
Jan 12
New Moon
Jan 18
First Quarter
Jan 26
Full
Feb 3
Last Quarter
Feb 10
New

Hourly Weather History & Observations

Time (MST) Temp. Windchill Dew Point Humidity Pressure Visibility Wind Dir Wind Speed Gust Speed Precip Events Conditions
12:02 AM 1.4 °F -23.5 °F -2.2 °F 85% 29.84 in 1.8 mi NW 28.8 mph 40.3 mph 0.00 in Snow Light Snow
12:53 AM 1.9 °F -22.4 °F -2.0 °F 83% 30.12 in 1.5 mi NW 27.6 mph 34.5 mph 0.00 in Snow Light Snow
1:50 AM 1.4 °F -22.7 °F -2.2 °F 85% 29.89 in 2.0 mi NW 26.5 mph 34.5 mph 0.00 in Snow Light Snow
1:53 AM 1.9 °F -20.7 °F -2.0 °F 83% 30.13 in 2.0 mi NW 23.0 mph 34.5 mph 0.00 in Snow Light Snow
2:23 AM 1.4 °F -21.4 °F -2.2 °F 85% 29.91 in 1.5 mi NW 23.0 mph 35.7 mph 0.00 in Snow Light Snow
2:51 AM 1.4 °F -21.4 °F -2.2 °F 85% 29.92 in 2.0 mi NW 23.0 mph 29.9 mph 0.00 in Snow Light Snow
2:53 AM 1.9 °F -21.6 °F -2.0 °F 83% 30.16 in 2.5 mi NW 25.3 mph 29.9 mph 0.00 in Snow Light Snow
3:53 AM 1.9 °F -19.8 °F -2.0 °F 83% 30.17 in 3.0 mi NW 20.7 mph 28.8 mph 0.00 in Snow Light Snow
4:04 AM 1.4 °F -21.0 °F -2.2 °F 85% 29.92 in 3.0 mi NW 21.9 mph 28.8 mph 0.00 in Snow Light Snow
4:53 AM 1.9 °F -18.1 °F -2.0 °F 83% 30.19 in 4.0 mi NW 17.3 mph - 0.00 in   Overcast
5:53 AM 1.9 °F -17.5 °F -0.9 °F 88% 30.21 in 3.0 mi NW 16.1 mph - N/A   Overcast
6:53 AM 3.0 °F -14.8 °F -0.9 °F 84% 30.22 in 4.0 mi NW 13.8 mph - 0.01 in   Overcast
7:53 AM 1.9 °F -11.8 °F -0.9 °F 88% 30.25 in 4.0 mi NW 8.1 mph - 0.00 in   Overcast
8:04 AM 1.4 °F -13.5 °F -0.4 °F 92% 30.00 in 1.8 mi NW 9.2 mph - 0.00 in Snow Light Snow
8:10 AM 1.4 °F -12.5 °F -0.4 °F 92% 30.00 in 0.8 mi NW 8.1 mph - 0.01 in Snow Light Snow
8:23 AM 1.4 °F -14.5 °F -0.4 °F 92% 30.00 in 2.0 mi NW 10.4 mph - 0.01 in Snow Light Snow
8:31 AM 3.2 °F -13.1 °F -0.4 °F 85% 30.01 in 4.0 mi NW 11.5 mph - 0.01 in Snow Light Snow
8:53 AM 3.0 °F -10.5 °F -0.9 °F 84% 30.27 in 2.5 mi WNW 8.1 mph - 0.01 in   Overcast
9:04 AM 3.2 °F -9.1 °F -0.4 °F 85% 30.02 in 1.8 mi NW 6.9 mph - 0.01 in   Overcast
9:14 AM 3.2 °F -10.3 °F -0.4 °F 85% 30.02 in 2.5 mi NW 8.1 mph - 0.01 in   Overcast
9:29 AM 3.2 °F -10.3 °F -0.4 °F 85% 30.02 in 3.0 mi NW 8.1 mph - N/A   Overcast
9:53 AM 3.9 °F -8.2 °F -0.9 °F 80% 30.29 in 4.0 mi NNW 6.9 mph - 0.01 in   Haze
10:20 AM 3.2 °F -9.1 °F -0.4 °F 85% 30.04 in 1.8 mi NW 6.9 mph - 0.00 in Snow Light Snow
10:38 AM 3.2 °F -10.3 °F -0.4 °F 85% 30.03 in 3.0 mi NW 8.1 mph - 0.00 in Snow Light Snow
10:53 AM 5.0 °F -6.9 °F -0.0 °F 80% 30.28 in 5.0 mi NNW 6.9 mph - 0.00 in   Haze
11:18 AM 5.0 °F -5.6 °F -0.4 °F 78% 30.02 in 1.8 mi NNW 5.8 mph - N/A   Haze
11:48 AM 5.0 °F -8.1 °F -0.4 °F 78% 30.01 in 1.8 mi NNW 8.1 mph - 0.01 in   Haze
11:53 AM 5.0 °F -6.9 °F 1.0 °F 84% 30.26 in 2.0 mi NW 6.9 mph - 0.01 in   Overcast
12:18 PM 6.8 °F -3.5 °F 1.4 °F 79% 30.00 in 3.0 mi NW 5.8 mph - N/A   Haze
12:53 PM 6.1 °F -5.6 °F 1.0 °F 80% 30.25 in 4.0 mi NW 6.9 mph - N/A   Haze
1:49 PM 6.8 °F -3.5 °F 1.4 °F 79% 30.00 in 2.5 mi West 5.8 mph - N/A   Haze
1:53 PM 7.0 °F -1.7 °F 1.9 °F 80% 30.24 in 2.5 mi West 4.6 mph - N/A   Haze
2:03 PM 6.8 °F -2.0 °F 1.4 °F 79% 30.00 in 4.0 mi West 4.6 mph - N/A   Haze
2:53 PM 8.1 °F -2.0 °F 3.0 °F 80% 30.26 in 7.0 mi West 5.8 mph - 0.01 in   Overcast
3:37 PM 8.6 °F -2.6 °F 3.2 °F 79% 30.01 in 6.0 mi West 6.9 mph - N/A   Haze
3:49 PM 6.8 °F -3.5 °F 3.2 °F 85% 30.01 in 10.0 mi West 5.8 mph - N/A   Overcast
3:53 PM 7.0 °F -3.3 °F 3.0 °F 84% 30.25 in 10.0 mi West 5.8 mph - N/A   Overcast
4:53 PM 6.1 °F -2.8 °F 1.9 °F 83% 30.26 in 10.0 mi WSW 4.6 mph - N/A   Overcast
5:53 PM 1.9 °F -7.6 °F -0.9 °F 88% 30.27 in 10.0 mi West 4.6 mph - N/A   Mostly Cloudy
6:53 PM 1.9 °F -10.6 °F -0.9 °F 88% 30.27 in 10.0 mi West 6.9 mph - N/A   Overcast
7:53 PM 1.9 °F -10.6 °F -0.9 °F 88% 30.27 in 10.0 mi West 6.9 mph - N/A   Overcast
8:53 PM 1.9 °F -11.8 °F -0.9 °F 88% 30.27 in 10.0 mi West 8.1 mph - N/A   Mostly Cloudy
9:53 PM 3.9 °F -10.4 °F -0.0 °F 84% 30.25 in 10.0 mi West 9.2 mph - N/A   Mostly Cloudy
10:53 PM 5.0 °F -9.1 °F 1.9 °F 87% 30.25 in 10.0 mi West 9.2 mph - N/A   Overcast
11:53 PM 6.1 °F -7.8 °F 3.0 °F 87% 30.25 in 6.0 mi West 9.2 mph - N/A   Overcast